Greenland, AR

4:38 PM CST on December 06, 2016 (GMT -0600)
Drake

Weather History for KFYV - October, 2013

Change the Weather History Date:

Monday, October 14, 2013

  Actual Average Record
Temperature  
Mean Temperature 61 °F 58 °F  
Max Temperature 69 °F 71 °F 90 °F (1963)
Min Temperature 53 °F 46 °F 27 °F (2002)
Degree Days  
Heating Degree Days 4 7  
Month to date heating degree days 55 84  
Since 1 July heating degree days 67 136  
Cooling Degree Days 0 1  
Month to date cooling degree days 44 17  
Year to date cooling degree days 1390 1300  
Growing Degree Days 10 (Base 50)    
Moisture  
Dew Point 55 °F    
Average Humidity 80    
Maximum Humidity 97    
Minimum Humidity 63    
Precipitation  
Precipitation 0.33 in 0.14 in 1.05 in (2003)
Month to date precipitation 3.60 2.00  
Year to date precipitation 38.34 38.71  
Sea Level Pressure  
Sea Level Pressure 30.11 in    
Wind  
Wind Speed 5 mph (SE)    
Max Wind Speed 15 mph    
Max Gust Speed 24 mph    
Visibility 10 miles    
Events Rain    
T = Trace of Precipitation, MM = Missing Value Source: NWS Daily Summary

Daily Weather History Graph

Daily Weather History Graph

Search for Another Location

Airport or City:

Trip Planner

Search our weather history database for the weather conditions in past years. The results will help you decide how hot, cold, wet, or windy it might be!

Date:

Astronomy

Oct. 14, 2013 Rise Set
Actual Time 7:22 AM CDT 6:41 PM CDT
Civil Twilight 6:57 AM CDT 7:07 PM CDT
Nautical Twilight 6:27 AM CDT 7:37 PM CDT
Astronomical Twilight 5:57 AM CDT 8:06 PM CDT
Moon 4:04 PM CDT (10/14) 2:48 AM CDT (10/14)
Length of Visible Light 12h 10m
Length of Day
11h 18m
Waxing Gibbous, 79% of the Moon is Illuminated
Oct 14
Waxing Gibbous
Oct 18
Full
Oct 26
Last Quarter
Nov 3
New
Nov 9
First Quarter

Hourly Weather History & Observations

Time (CDT) Temp. Dew Point Humidity Pressure Visibility Wind Dir Wind Speed Gust Speed Precip Events Conditions
12:53 AM 57.0 °F 53.1 °F 87% 30.23 in 10.0 mi Calm Calm - N/A   Clear
1:53 AM 55.9 °F 53.1 °F 90% 30.22 in 10.0 mi Calm Calm - N/A   Clear
2:53 AM 57.0 °F 52.0 °F 83% 30.21 in 10.0 mi Calm Calm - N/A   Clear
3:53 AM 55.0 °F 51.1 °F 86% 30.20 in 10.0 mi Calm Calm - N/A   Clear
4:53 AM 53.1 °F 51.1 °F 93% 30.19 in 10.0 mi Calm Calm - N/A   Clear
5:53 AM 54.0 °F 51.1 °F 90% 30.18 in 10.0 mi Calm Calm - N/A   Clear
6:53 AM 55.0 °F 50.0 °F 83% 30.17 in 10.0 mi Calm Calm - N/A   Clear
7:53 AM 57.9 °F 48.9 °F 72% 30.18 in 10.0 mi NE 5.8 mph - N/A   Partly Cloudy
8:53 AM 57.0 °F 52.0 °F 83% 30.19 in 10.0 mi East 6.9 mph - N/A   Clear
9:53 AM 62.1 °F 53.1 °F 72% 30.17 in 10.0 mi ENE 4.6 mph - N/A   Partly Cloudy
10:53 AM 66.0 °F 54.0 °F 65% 30.17 in 10.0 mi ESE 3.5 mph - N/A   Mostly Cloudy
11:53 AM 66.0 °F 57.0 °F 73% 30.15 in 10.0 mi SE 5.8 mph - N/A   Overcast
12:53 PM 68.0 °F 59.0 °F 73% 30.12 in 10.0 mi SSE 9.2 mph 16.1 mph N/A   Overcast
1:53 PM 68.0 °F 59.0 °F 73% 30.07 in 10.0 mi SSE 10.4 mph - N/A   Overcast
2:53 PM 68.0 °F 59.0 °F 73% 30.05 in 10.0 mi South 9.2 mph - 0.00 in Rain Light Rain
3:53 PM 64.9 °F 57.9 °F 78% 30.03 in 10.0 mi SE 5.8 mph - 0.02 in Rain Light Rain
4:53 PM 64.0 °F 59.0 °F 84% 30.01 in 10.0 mi ESE 8.1 mph - 0.02 in Rain Light Rain
5:53 PM 63.0 °F 59.0 °F 87% 30.01 in 10.0 mi Calm Calm - 0.02 in Rain Light Rain
6:53 PM 63.0 °F 57.0 °F 81% 30.03 in 10.0 mi SE 5.8 mph - 0.06 in Rain Light Rain
7:53 PM 60.1 °F 59.0 °F 96% 30.04 in 4.0 mi WNW 5.8 mph - 0.05 in Rain Rain
8:53 PM 62.1 °F 57.0 °F 84% 30.02 in 10.0 mi SSE 6.9 mph - 0.11 in Rain Light Rain
9:53 PM 62.1 °F 57.9 °F 86% 30.02 in 10.0 mi SSE 6.9 mph - 0.03 in Rain Light Rain
10:53 PM 62.1 °F 57.0 °F 84% 30.00 in 10.0 mi SSE 10.4 mph - 0.01 in   Overcast
11:53 PM 62.1 °F 57.9 °F 86% 29.97 in 10.0 mi SSE 10.4 mph - 0.01 in   Overcast